Weather History for Kodiak, AK

Change the Weather History Date:

Tuesday, January 29, 2013

  Actual Average Record
Temperature  
Mean Temperature 35 °F 30 °F  
Max Temperature 36 °F 35 °F 48 °F (1985)
Min Temperature 33 °F 26 °F -9 °F (1989)
Degree Days  
Heating Degree Days 30 35  
Month to date heating degree days 920 1003  
Since 1 July heating degree days 4959 4844  
Cooling Degree Days 0    
Month to date cooling degree days 0  
Year to date cooling degree days 0  
Moisture  
Dew Point 35 °F    
Average Humidity 0    
Maximum Humidity 0    
Minimum Humidity 0    
Precipitation  
Precipitation 0.49 in 0.24 in 3.40 in (2007)
Month to date precipitation 9.14 7.83  
Year to date precipitation 9.14 7.83  
Snow  
Snow 2.00 in 0.50 in 9.00 in (1962)
Month to date snowfall 12.9 12.1  
Since 1 July snowfall 29.3 33.4  
Snow Depth 8.00 in    
Sea Level Pressure  
Sea Level Pressure 29.57 in    
Wind  
Wind Speed 7 mph (NE)    
Max Wind Speed 14 mph    
Max Gust Speed 16 mph    
Visibility 2 miles    
Events Fog , Rain , Snow    
T = Trace of Precipitation, MM = Missing Value Source: NWS Daily Summary

Daily Weather History Graph

Daily Weather History Graph

Search for Another Location

Airport:

Trip Planner

Search our weather history database for the weather conditions in past years. The results will help you decide how hot, cold, wet, or windy it might be!

Date:

Astronomy

Jan. 29, 2013 Rise Set
Actual Time 9:17 AM AKST 5:29 PM AKST
Civil Twilight 8:33 AM AKST 6:13 PM AKST
Nautical Twilight 7:45 AM AKST 7:01 PM AKST
Astronomical Twilight 7:00 AM AKST 7:47 PM AKST
Moon 9:30 PM AKST (1/29) 9:32 AM AKST (1/29)
Length of Visible Light 9h 40m
Length of Day
8h 12m
Waning Gibbous, 93% of the Moon is Illuminated
Jan 29
Waning Gibbous
Feb 3
Last Quarter
Feb 9
New
Feb 17
First Quarter
Feb 25
Full

Hourly Weather History & Observations

Time (AKST) Temp. Windchill Dew Point Humidity Pressure Visibility Wind Dir Wind Speed Gust Speed Precip Events Conditions
12:53 AM 34.0 °F 21.5 °F 32.0 °F 92% 29.45 in 3.0 mi NE 24.2 mph 29.9 mph 0.05 in Snow Light Snow
1:21 AM 33.8 °F 21.6 °F 32.0 °F 93% 29.45 in 5.0 mi NNE 23.0 mph 31.1 mph 0.03 in Snow Light Snow
1:53 AM 34.0 °F 22.1 °F 33.1 °F 96% 29.45 in 4.0 mi NNE 21.9 mph 32.2 mph 0.06 in Snow Light Snow
2:53 AM 34.0 °F 24.2 °F 32.0 °F 92% 29.45 in 4.0 mi NNE 15.0 mph 25.3 mph 0.06 in Snow Light Snow
3:53 AM 35.1 °F 25.5 °F 33.1 °F 92% 29.45 in 5.0 mi NNE 15.0 mph - 0.04 in Snow Light Snow
4:53 AM 35.1 °F 27.9 °F 33.1 °F 92% 29.47 in 3.0 mi North 9.2 mph - 0.02 in Snow Light Snow
5:53 AM 35.1 °F 30.1 °F 34.0 °F 96% 29.48 in 5.0 mi North 5.8 mph - 0.03 in Rain Light Rain
6:53 AM 35.1 °F 31.0 °F 34.0 °F 96% 29.50 in 4.0 mi Variable 4.6 mph - 0.03 in Rain Light Rain
7:26 AM 35.6 °F 29.9 °F 33.8 °F 93% 29.51 in 2.5 mi North 6.9 mph - 0.02 in Rain , Snow Light Rain
7:53 AM 35.1 °F 29.3 °F 35.1 °F 100% 29.53 in 2.5 mi North 6.9 mph - 0.04 in Rain , Snow Light Rain
8:53 AM 35.1 °F 27.4 °F 35.1 °F 100% 29.55 in 2.5 mi North 10.4 mph - 0.06 in Rain , Snow Light Rain
9:53 AM 36.0 °F 29.6 °F 35.1 °F 97% 29.56 in 2.5 mi NNE 8.1 mph - 0.03 in Rain , Snow Light Rain
10:31 AM 35.6 °F 29.9 °F 35.6 °F 100% 29.57 in 0.5 mi NNE 6.9 mph - 0.02 in Rain , Snow Light Rain
10:41 AM 35.6 °F 30.7 °F 35.6 °F 100% 29.57 in 2.0 mi NE 5.8 mph - 0.02 in Rain , Snow Light Rain
10:53 AM 36.0 °F 30.3 °F 36.0 °F 100% 29.58 in 2.0 mi NE 6.9 mph - 0.03 in Rain , Snow Light Rain
11:29 AM 35.6 °F - 35.6 °F 100% 29.58 in 1.0 mi Calm Calm - 0.00 in Rain , Snow Light Rain
11:46 AM 35.6 °F 29.9 °F 35.6 °F 100% 29.57 in 0.5 mi NNE 6.9 mph - 0.01 in Rain Light Rain
11:53 AM 36.0 °F 31.1 °F 36.0 °F 100% 29.59 in 0.5 mi NE 5.8 mph - 0.01 in Rain Light Rain
12:53 PM 35.1 °F - 35.1 °F 100% 29.60 in 0.5 mi Calm Calm - 0.01 in Rain Light Rain
1:53 PM 35.1 °F - 35.1 °F 100% 29.60 in 0.8 mi Calm Calm - 0.00 in Rain Light Rain
2:53 PM 35.1 °F 32.2 °F 35.1 °F 100% 29.59 in 0.5 mi South 3.5 mph - 0.01 in Fog , Rain Light Rain
3:53 PM 35.1 °F 29.3 °F 35.1 °F 100% 29.60 in 2.0 mi South 6.9 mph - 0.00 in Fog , Rain Light Rain
4:18 PM 35.6 °F 32.8 °F 35.6 °F 100% 29.59 in 2.5 mi SSE 3.5 mph - 0.00 in Fog , Rain Light Rain
4:53 PM 35.1 °F - 35.1 °F 100% 29.60 in 2.5 mi Calm Calm - 0.00 in Fog , Rain Light Rain
5:37 PM 35.6 °F - 35.6 °F 100% 29.60 in 3.0 mi Calm Calm - 0.00 in Fog , Rain Light Rain
5:53 PM 35.1 °F - 35.1 °F 100% 29.61 in 3.0 mi Calm Calm - 0.00 in Rain Light Rain
6:20 PM 35.6 °F 32.8 °F 35.6 °F 100% 29.60 in 2.0 mi NE 3.5 mph - N/A   Overcast
6:53 PM 34.0 °F - 34.0 °F 100% 29.61 in 2.0 mi Calm Calm - N/A   Overcast
7:30 PM 35.6 °F 29.9 °F 35.6 °F 100% 29.61 in 1.0 mi South 6.9 mph - N/A   Overcast
7:50 PM 33.8 °F 28.6 °F 33.8 °F 100% 29.61 in 2.0 mi South 5.8 mph - N/A   Overcast
7:53 PM 34.0 °F 28.0 °F 34.0 °F 100% 29.61 in 2.0 mi South 6.9 mph - N/A   Overcast
8:08 PM 33.8 °F 29.6 °F 33.8 °F 100% 29.61 in 3.0 mi South 4.6 mph - N/A   Overcast
8:53 PM 34.0 °F - 34.0 °F 100% 29.62 in 3.0 mi Calm Calm - N/A   Overcast
9:44 PM 35.6 °F - 35.6 °F 100% 29.62 in 3.0 mi Calm Calm - N/A   Overcast
9:53 PM 35.1 °F - 35.1 °F 100% 29.62 in 3.0 mi Calm Calm - N/A   Overcast
10:02 PM 35.6 °F - 35.6 °F 100% 29.62 in 0.8 mi Calm Calm - N/A   Overcast
10:45 PM 35.6 °F 31.7 °F 35.6 °F 100% 29.62 in 1.5 mi NE 4.6 mph - 0.00 in Rain Light Rain
10:53 PM 35.1 °F 30.1 °F 35.1 °F 100% 29.63 in 0.8 mi NE 5.8 mph - 0.00 in Rain Light Rain
11:20 PM 35.6 °F 30.7 °F 35.6 °F 100% 29.62 in 3.0 mi ENE 5.8 mph - 0.01 in Rain Light Rain
11:53 PM 36.0 °F 32.1 °F 36.0 °F 100% 29.62 in 3.0 mi ENE 4.6 mph - 0.01 in Rain Light Rain
11:55 PM 35.6 °F 31.7 °F 35.6 °F 100% 29.61 in 0.8 mi East 4.6 mph - 0.00 in Rain Light Rain